FW1140 Weather Reports


time (UTC)temp
F
wind
direction
speed
knots
gust
knots
rain 1hr
in
rain 24hr
in
rain mn
in
humidity
%
barometer
mb
20260831233105 0 0.0 0.0 0.00 0.00 0.00 1008.1
20260831231533 0 0.0 0.0 0.00 0.00 0.00 1008.1
20260831230104 0 0.0 0.0 0.00 0.00 0.00 1008.1
20260831224558 0 0.0 0.0 0.00 0.00 0.00 1008.0
20260831223025 0 0.0 0.0 0.00 0.00 0.00 1008.0
20260831221519 85 216 0.9 6.1 0.00 0.00 0.00 42 1008.0
20260831220052 86 198 1.7 5.2 0.00 0.00 0.00 38 1007.9
20260831214509 85 236 1.7 5.2 0.00 0.00 0.00 38 1008.0
20260831213105 85 251 1.7 4.3 0.00 0.00 0.00 35 1007.9
20260831211525 87 269 1.7 5.2 0.00 0.00 0.00 36 1007.9
20260831210017 89 290 1.7 5.2 0.00 0.00 0.00 38 1008.0
20260831204555 89 273 1.7 6.1 0.00 0.00 0.00 38 1008.0
20260831203034 87 276 2.6 6.1 0.00 0.00 0.00 30 1008.1
20260831201517 87 203 2.6 7.0 0.00 0.00 0.00 38 1008.2
20260831200038 89 252 2.6 7.8 0.00 0.00 0.00 39 1008.2
20260831194523 88 259 2.6 8.7 0.00 0.00 0.00 37 1008.2
20260831193011 89 248 2.6 5.2 0.00 0.00 0.00 41 1008.2
20260831191535 88 257 0.9 5.2 0.00 0.00 0.00 44 1008.4
20260831190012 88 308 1.7 5.2 0.00 0.00 0.00 46 1008.4
20260831184504 87 350 1.7 5.2 0.00 0.00 0.00 47 1008.4
20260831183010 85 37 0.9 4.3 0.00 0.00 0.00 47 1008.3
20260831181509 86 57 1.7 4.3 0.00 0.00 0.00 47 1008.3
20260831180037 84 298 1.7 5.2 0.00 0.00 0.00 50 1008.4
20260831174550 84 330 0.9 4.3 0.00 0.00 0.00 48 1008.4
20260831173049 83 360 0.9 4.3 0.00 0.00 0.00 45 1008.6
20260831171526 82 311 0.9 4.3 0.00 0.00 0.00 49 1008.7
20260831170044 81 335 0.9 5.2 0.00 0.00 0.00 51 1008.8
20260831164505 79 290 2.6 5.2 0.00 0.00 0.00 49 1008.8
20260831163033 78 326 2.6 6.1 0.00 0.00 0.00 56 1008.7
20260831161550 74 345 1.7 6.1 0.00 0.00 0.00 60 1008.9
20260831160002 77 335 4.3 7.8 0.00 0.00 0.00 59 1008.9
20260831154531 75 285 3.5 7.0 0.00 0.00 0.00 63 1008.7
20260831153049 75 331 4.3 9.6 0.00 0.00 0.00 66 1008.7
20260831151542 74 274 4.3 8.7 0.00 0.00 0.00 65 1008.5
20260831150046 72 354 4.3 10.4 0.00 0.00 0.00 70 1008.5
20260831144557 72 330 3.5 7.8 0.00 0.00 0.00 71 1008.6
20260831143059 71 340 3.5 7.8 0.00 0.00 0.00 74 1008.5
20260831141525 70 324 2.6 6.1 0.00 0.00 0.00 78 1008.5
20260831140042 69 307 2.6 7.8 0.00 0.00 0.00 78 1008.4
20260831134530 69 288 2.6 5.2 0.00 0.00 0.00 77 1008.0
20260831133014 69 331 3.5 9.6 0.00 0.00 0.00 76 1007.5
20260831131516 68 316 4.3 8.7 0.00 0.00 0.00 78 1007.0
20260831130016 67 296 3.5 8.7 0.00 0.00 0.00 79 1007.1
20260831124523 66 300 3.5 7.8 0.00 0.00 0.00 79 1007.1
20260831123043 65 292 2.6 6.1 0.00 0.00 0.00 80 1006.9
20260831121523 65 259 1.7 6.1 0.00 0.00 0.00 81 1006.6
20260831120032 64 289 1.7 4.3 0.00 0.00 0.00 82 1006.3
20260831114518 64 295 0.9 4.3 0.00 0.00 0.00 80 1005.8
20260831113032 65 307 1.7 5.2 0.00 0.00 0.00 79 1005.6
20260831111525 66 329 1.7 6.1 0.00 0.00 0.00 76 1005.3
20260831110058 67 291 2.6 6.1 0.00 0.00 0.00 75 1005.1
20260831104527 68 288 2.6 6.1 0.00 0.00 0.00 75 1004.8
20260831103027 69 287 2.6 7.0 0.00 0.00 0.00 76 1004.6
20260831101512 69 238 3.5 8.7 0.00 0.00 0.00 76 1004.4
20260831100012 70 309 3.5 9.6 0.00 0.00 0.00 79 1004.3
20260831094530 70 294 3.5 8.7 0.00 0.00 0.00 82 1004.0
20260831093051 70 252 4.3 8.7 0.00 0.00 0.00 83 1003.9
20260831091602 70 287 3.5 9.6 0.00 0.00 0.00 86 1003.9
20260831090049 70 283 3.5 7.0 0.00 0.00 0.00 90 1003.6
20260831084606 70 268 1.7 6.1 0.00 0.00 0.00 91 1003.7
20260831083019 0 0.0 0.0 0.00 0.00 0.00 1003.5
20260831081557 0 0.0 0.0 0.00 0.00 0.00 1003.4
20260831080005 0 0.0 0.0 0.00 0.00 0.00 1003.1
20260831074533 0 0.0 0.0 0.00 0.00 0.00 1003.0
20260831073019 0 0.0 0.0 0.00 0.00 0.00 1002.9
20260831071548 0 0.0 0.0 0.00 0.00 0.00 1002.8
20260831070020 0 0.0 0.0 0.00 0.00 0.00 1002.6
20260831064612 0 0.0 0.0 0.00 0.00 0.00 1002.5
20260831063026 0 0.0 0.0 0.00 0.00 0.00 1002.3
20260831061550 0 0.0 0.0 0.00 0.00 0.00 1002.0
20260831060012 0 0.0 0.0 0.00 0.00 0.00 1001.9
20260831054547 0 0.0 0.0 0.00 0.00 0.00 1001.7
20260831053047 0 0.0 0.0 0.00 0.00 0.00 1001.5
20260831051619 0 0.0 0.0 0.00 0.00 0.00 1001.4
20260831050026 74 216 2.6 5.2 0.00 0.00 0.00 93 1001.4
20260831034541 72 226 0.0 1.7 0.00 0.00 0.00 93 1001.8
20260831033050 73 236 0.0 2.6 0.00 0.00 0.00 93 1001.8
20260831031511 72 228 0.9 2.6 0.00 0.00 0.00 92 1001.8
20260831030020 73 228 0.9 1.7 0.00 0.00 0.00 92 1001.6
20260831024633 73 228 0.0 2.6 0.00 0.00 0.00 91 1001.4
20260831023042 74 248 0.9 1.7 0.00 0.00 0.00 91 1001.4
20260831021558 75 224 0.0 2.6 0.00 0.00 0.00 90 1000.9
20260831020003 77 144 1.7 3.5 0.00 0.00 0.00 89 1000.8
20260831014542 76 216 1.7 3.5 0.00 0.00 0.00 88 1000.6
20260831013102 77 117 0.0 1.7 0.00 0.00 0.00 89 1000.7
20260831011601 78 117 0.0 1.7 0.00 0.00 0.00 86 1000.8
20260831010122 79 117 0.9 3.5 0.00 0.00 0.00 84 1000.8
20260831004551 80 127 0.9 2.6 0.00 0.00 0.00 83 1000.9
20260831003053 81 120 1.7 4.3 0.00 0.00 0.00 81 1001.1
20260831001554 82 94 1.7 5.2 0.00 0.00 0.00 79 1001.2
20260831000105 83 116 1.7 5.2 0.00 0.00 0.00 78 1001.2
20260830234534 83 93 2.6 5.2 0.00 0.00 0.00 80 1001.1